Year,Month,Day,Hour,Minute,Value (Times are PST for temperature in C)
2021,06,26,00,00,23.70
2021,06,26,00,01,23.60
2021,06,26,00,02,23.60
2021,06,26,00,03,23.60
2021,06,26,00,04,23.50
2021,06,26,00,05,23.50
2021,06,26,00,06,23.40
2021,06,26,00,07,23.40
2021,06,26,00,08,23.40
2021,06,26,00,09,23.40
2021,06,26,00,10,23.30
2021,06,26,00,11,23.30
2021,06,26,00,12,23.30
2021,06,26,00,13,23.30
2021,06,26,00,14,23.20
2021,06,26,00,15,23.20
2021,06,26,00,16,23.20
2021,06,26,00,17,23.10
2021,06,26,00,18,23.10
2021,06,26,00,19,23.10
2021,06,26,00,20,23.10
2021,06,26,00,21,23.10
2021,06,26,00,22,23.10
2021,06,26,00,23,23.10
2021,06,26,00,24,23.10
2021,06,26,00,25,23.10
2021,06,26,00,26,23.10
2021,06,26,00,27,23.10
2021,06,26,00,28,23.10
2021,06,26,00,29,23.00
2021,06,26,00,30,23.00
2021,06,26,00,31,23.00
2021,06,26,00,32,23.00
2021,06,26,00,33,22.90
2021,06,26,00,34,22.90
2021,06,26,00,35,22.90
2021,06,26,00,36,22.90
2021,06,26,00,37,22.90
2021,06,26,00,38,22.90
2021,06,26,00,39,22.80
2021,06,26,00,40,22.80
2021,06,26,00,41,22.80
2021,06,26,00,42,22.70
2021,06,26,00,43,22.70
2021,06,26,00,44,22.70
2021,06,26,00,45,22.70
2021,06,26,00,46,22.60
2021,06,26,00,47,22.60
2021,06,26,00,48,22.60
2021,06,26,00,49,22.60
2021,06,26,00,50,22.60
2021,06,26,00,51,22.70
2021,06,26,00,52,22.60
2021,06,26,00,53,22.60
2021,06,26,00,54,22.60
2021,06,26,00,55,22.60
2021,06,26,00,56,22.60
2021,06,26,00,57,22.60
2021,06,26,00,58,22.50
2021,06,26,00,59,22.50
2021,06,26,01,00,22.50
2021,06,26,01,01,22.50
2021,06,26,01,02,22.50
2021,06,26,01,03,22.50
2021,06,26,01,04,22.40
2021,06,26,01,05,22.40
2021,06,26,01,06,22.40
2021,06,26,01,07,22.40
2021,06,26,01,08,22.40
2021,06,26,01,09,22.40
2021,06,26,01,10,22.40
2021,06,26,01,11,22.40
2021,06,26,01,12,22.40
2021,06,26,01,13,22.50
2021,06,26,01,14,22.40
2021,06,26,01,15,22.40
2021,06,26,01,16,22.40
2021,06,26,01,17,22.40
2021,06,26,01,18,22.40
2021,06,26,01,19,22.40
2021,06,26,01,20,22.30
2021,06,26,01,21,22.30
2021,06,26,01,22,22.30
2021,06,26,01,23,22.30
2021,06,26,01,24,22.30
2021,06,26,01,25,22.40
2021,06,26,01,26,22.40
2021,06,26,01,27,22.40
2021,06,26,01,28,22.40
2021,06,26,01,29,22.40
2021,06,26,01,30,22.40
2021,06,26,01,31,22.40
2021,06,26,01,32,22.30
2021,06,26,01,33,22.30
2021,06,26,01,34,22.30
2021,06,26,01,35,22.30
2021,06,26,01,36,22.30
2021,06,26,01,37,22.30
2021,06,26,01,38,22.20
2021,06,26,01,39,22.20
2021,06,26,01,40,22.10
2021,06,26,01,41,22.10
2021,06,26,01,42,22.10
2021,06,26,01,43,22.10
2021,06,26,01,44,22.10
2021,06,26,01,45,22.00
2021,06,26,01,46,22.00
2021,06,26,01,47,22.10
2021,06,26,01,48,22.10
2021,06,26,01,49,22.10
2021,06,26,01,50,22.10
2021,06,26,01,51,22.10
2021,06,26,01,52,22.10
2021,06,26,01,53,22.00
2021,06,26,01,54,22.00
2021,06,26,01,55,22.00
2021,06,26,01,56,22.00
2021,06,26,01,57,22.00
2021,06,26,01,58,21.90
2021,06,26,01,59,21.90
2021,06,26,02,00,21.90
2021,06,26,02,01,21.80
2021,06,26,02,02,21.80
2021,06,26,02,03,21.80
2021,06,26,02,04,21.80
2021,06,26,02,05,21.80
2021,06,26,02,06,21.70
2021,06,26,02,07,21.70
2021,06,26,02,08,21.70
2021,06,26,02,09,21.70
2021,06,26,02,10,21.70
2021,06,26,02,11,21.60
2021,06,26,02,12,21.60
2021,06,26,02,13,21.60
2021,06,26,02,14,21.60
2021,06,26,02,15,21.60
2021,06,26,02,16,21.60
2021,06,26,02,17,21.60
2021,06,26,02,18,21.60
2021,06,26,02,19,21.60
2021,06,26,02,20,21.50
2021,06,26,02,21,21.40
2021,06,26,02,22,21.40
2021,06,26,02,23,21.40
2021,06,26,02,24,21.40
2021,06,26,02,25,21.40
2021,06,26,02,26,21.40
2021,06,26,02,27,21.40
2021,06,26,02,28,21.40
2021,06,26,02,29,21.40
2021,06,26,02,30,21.40
2021,06,26,02,31,21.30
2021,06,26,02,32,21.30
2021,06,26,02,33,21.30
2021,06,26,02,34,21.30
2021,06,26,02,35,21.30
2021,06,26,02,36,21.30
2021,06,26,02,37,21.30
2021,06,26,02,38,21.20
2021,06,26,02,39,21.20
2021,06,26,02,40,21.20
2021,06,26,02,41,21.20
2021,06,26,02,42,21.20
2021,06,26,02,43,21.20
2021,06,26,02,44,21.10
2021,06,26,02,45,21.10
2021,06,26,02,46,21.10
2021,06,26,02,47,21.10
2021,06,26,02,48,21.10
2021,06,26,02,49,21.10
2021,06,26,02,50,21.10
2021,06,26,02,51,21.10
2021,06,26,02,52,21.10
2021,06,26,02,53,21.10
2021,06,26,02,54,21.10
2021,06,26,02,55,21.10
2021,06,26,02,56,21.10
2021,06,26,02,57,21.00
2021,06,26,02,58,21.00
2021,06,26,02,59,21.00
2021,06,26,03,00,20.90
2021,06,26,03,01,20.90
2021,06,26,03,02,20.90
2021,06,26,03,03,20.90
2021,06,26,03,04,20.90
2021,06,26,03,05,20.90
2021,06,26,03,06,20.90
2021,06,26,03,07,21.00
2021,06,26,03,08,21.00
2021,06,26,03,09,21.10
2021,06,26,03,10,21.10
2021,06,26,03,11,21.00
2021,06,26,03,12,21.00
2021,06,26,03,13,21.00
2021,06,26,03,14,21.00
2021,06,26,03,15,20.90
2021,06,26,03,16,21.00
2021,06,26,03,17,21.00
2021,06,26,03,18,21.00
2021,06,26,03,19,21.00
2021,06,26,03,20,21.00
2021,06,26,03,21,21.00
2021,06,26,03,22,20.90
2021,06,26,03,23,20.90
2021,06,26,03,24,20.90
2021,06,26,03,25,20.80
2021,06,26,03,26,20.80
2021,06,26,03,27,20.80
2021,06,26,03,28,20.80
2021,06,26,03,29,20.80
2021,06,26,03,30,20.80
2021,06,26,03,31,20.70
2021,06,26,03,32,20.70
2021,06,26,03,33,20.70
2021,06,26,03,34,20.70
2021,06,26,03,35,20.70
2021,06,26,03,36,20.70
2021,06,26,03,37,20.70
2021,06,26,03,38,20.70
2021,06,26,03,39,20.70
2021,06,26,03,40,20.70
2021,06,26,03,41,20.70
2021,06,26,03,42,20.70
2021,06,26,03,43,20.60
2021,06,26,03,44,20.60
2021,06,26,03,45,20.60
2021,06,26,03,46,20.60
2021,06,26,03,47,20.60
2021,06,26,03,48,20.60
2021,06,26,03,49,20.60
2021,06,26,03,50,20.50
2021,06,26,03,51,20.50
2021,06,26,03,52,20.50
2021,06,26,03,53,20.50
2021,06,26,03,54,20.50
2021,06,26,03,55,20.50
2021,06,26,03,56,20.40
2021,06,26,03,57,20.50
2021,06,26,03,58,20.50
2021,06,26,03,59,20.50
2021,06,26,04,00,20.50
2021,06,26,04,01,20.50
2021,06,26,04,02,20.60
2021,06,26,04,03,20.60
2021,06,26,04,04,20.60
2021,06,26,04,05,20.60
2021,06,26,04,06,20.70
2021,06,26,04,07,20.70
2021,06,26,04,08,20.80
2021,06,26,04,09,20.80
2021,06,26,04,10,20.70
2021,06,26,04,11,20.70
2021,06,26,04,12,20.70
2021,06,26,04,13,20.70
2021,06,26,04,14,20.70
2021,06,26,04,15,20.60
2021,06,26,04,16,20.70
2021,06,26,04,17,20.70
2021,06,26,04,18,20.60
2021,06,26,04,19,20.60
2021,06,26,04,20,20.60
2021,06,26,04,21,20.60
2021,06,26,04,22,20.50
2021,06,26,04,23,20.50
2021,06,26,04,24,20.50
2021,06,26,04,25,20.40
2021,06,26,04,26,20.40
2021,06,26,04,27,20.40
2021,06,26,04,28,20.30
2021,06,26,04,29,20.30
2021,06,26,04,30,20.30
2021,06,26,04,31,20.20
2021,06,26,04,32,20.20
2021,06,26,04,33,20.20
2021,06,26,04,34,20.20
2021,06,26,04,35,20.20
2021,06,26,04,36,20.10
2021,06,26,04,37,20.00
2021,06,26,04,38,20.00
2021,06,26,04,39,20.00
2021,06,26,04,40,19.90
2021,06,26,04,41,19.90
2021,06,26,04,42,19.90
2021,06,26,04,43,19.80
2021,06,26,04,44,19.80
2021,06,26,04,45,19.80
2021,06,26,04,46,19.80
2021,06,26,04,47,19.80
2021,06,26,04,48,19.70
2021,06,26,04,49,19.70
2021,06,26,04,50,19.70
2021,06,26,04,51,19.60
2021,06,26,04,52,19.60
2021,06,26,04,53,19.60
2021,06,26,04,54,19.60
2021,06,26,04,55,19.60
2021,06,26,04,56,19.60
2021,06,26,04,57,19.60
2021,06,26,04,58,19.60
2021,06,26,04,59,19.60
2021,06,26,05,00,19.60
2021,06,26,05,01,19.60
2021,06,26,05,02,19.60
2021,06,26,05,03,19.60
2021,06,26,05,04,19.60
2021,06,26,05,05,19.60
2021,06,26,05,06,19.60
2021,06,26,05,07,19.60
2021,06,26,05,08,19.60
2021,06,26,05,09,19.50
2021,06,26,05,10,19.50
2021,06,26,05,11,19.50
2021,06,26,05,12,19.50
2021,06,26,05,13,19.40
2021,06,26,05,14,19.40
2021,06,26,05,15,19.50
2021,06,26,05,16,19.50
2021,06,26,05,17,19.40
2021,06,26,05,18,19.40
2021,06,26,05,19,19.40
2021,06,26,05,20,19.40
2021,06,26,05,21,19.40
2021,06,26,05,22,19.40
2021,06,26,05,23,19.40
2021,06,26,05,24,19.50
2021,06,26,05,25,19.50
2021,06,26,05,26,19.50
2021,06,26,05,27,19.40
2021,06,26,05,28,19.40
2021,06,26,05,29,19.40
2021,06,26,05,30,19.40
2021,06,26,05,31,19.40
2021,06,26,05,32,19.50
2021,06,26,05,33,19.50
2021,06,26,05,34,19.50
2021,06,26,05,35,19.50
2021,06,26,05,36,19.50
2021,06,26,05,37,19.50
2021,06,26,05,38,19.50
2021,06,26,05,39,19.50
2021,06,26,05,40,19.50
2021,06,26,05,41,19.40
2021,06,26,05,42,19.40
2021,06,26,05,43,19.40
2021,06,26,05,44,19.40
2021,06,26,05,45,19.40
2021,06,26,05,46,19.40
2021,06,26,05,47,19.40
2021,06,26,05,48,19.40
2021,06,26,05,49,19.40
2021,06,26,05,50,19.40
2021,06,26,05,51,19.40
2021,06,26,05,52,19.40
2021,06,26,05,53,19.40
2021,06,26,05,54,19.40
2021,06,26,05,55,19.40
2021,06,26,05,56,19.40
2021,06,26,05,57,19.40
2021,06,26,05,58,19.40
2021,06,26,05,59,19.40
2021,06,26,06,00,19.40
2021,06,26,06,01,19.40
2021,06,26,06,02,19.40
2021,06,26,06,03,19.40
2021,06,26,06,04,19.40
2021,06,26,06,05,19.40
2021,06,26,06,06,19.30
2021,06,26,06,07,19.40
2021,06,26,06,08,19.40
2021,06,26,06,09,19.40
2021,06,26,06,10,19.40
2021,06,26,06,11,19.40
2021,06,26,06,12,19.40
2021,06,26,06,13,19.40
2021,06,26,06,14,19.40
2021,06,26,06,15,19.40
2021,06,26,06,16,19.40
2021,06,26,06,17,19.40
2021,06,26,06,18,19.40
2021,06,26,06,19,19.40
2021,06,26,06,20,19.50
2021,06,26,06,21,19.40
2021,06,26,06,22,19.50
2021,06,26,06,23,19.50
2021,06,26,06,24,19.50
2021,06,26,06,25,19.50
2021,06,26,06,26,19.50
2021,06,26,06,27,19.50
2021,06,26,06,28,19.50
2021,06,26,06,29,19.50
2021,06,26,06,30,19.50
2021,06,26,06,31,19.60
2021,06,26,06,32,19.60
2021,06,26,06,33,19.60
2021,06,26,06,34,19.50
2021,06,26,06,35,19.50
2021,06,26,06,36,19.60
2021,06,26,06,37,19.60
2021,06,26,06,38,19.60
2021,06,26,06,39,19.60
2021,06,26,06,40,19.60
2021,06,26,06,41,19.60
2021,06,26,06,42,19.60
2021,06,26,06,43,19.60
2021,06,26,06,44,19.60
2021,06,26,06,45,19.60
2021,06,26,06,46,19.70
2021,06,26,06,47,19.70
2021,06,26,06,48,19.70
2021,06,26,06,49,19.70
2021,06,26,06,50,19.70
2021,06,26,06,51,19.70
2021,06,26,06,52,19.70
2021,06,26,06,53,19.70
2021,06,26,06,54,19.70
2021,06,26,06,55,19.70
2021,06,26,06,56,19.70
2021,06,26,06,57,19.70
2021,06,26,06,58,19.70
2021,06,26,06,59,19.70
2021,06,26,07,00,19.80
2021,06,26,07,01,19.80
2021,06,26,07,02,19.80
2021,06,26,07,03,19.80
2021,06,26,07,04,19.80
2021,06,26,07,05,19.90
2021,06,26,07,06,19.90
2021,06,26,07,07,19.90
2021,06,26,07,08,19.90
2021,06,26,07,09,20.00
2021,06,26,07,10,20.00
2021,06,26,07,11,20.10
2021,06,26,07,12,20.10
2021,06,26,07,13,20.20
2021,06,26,07,14,20.30
2021,06,26,07,15,20.30
2021,06,26,07,16,20.40
2021,06,26,07,17,20.40
2021,06,26,07,18,20.40
2021,06,26,07,19,20.50
2021,06,26,07,20,20.50
2021,06,26,07,21,20.50
2021,06,26,07,22,20.60
2021,06,26,07,23,20.60
2021,06,26,07,24,20.60
2021,06,26,07,25,20.70
2021,06,26,07,26,20.70
2021,06,26,07,27,20.80
2021,06,26,07,28,20.80
2021,06,26,07,29,20.90
2021,06,26,07,30,20.90
2021,06,26,07,31,21.00
2021,06,26,07,32,21.10
2021,06,26,07,33,21.10
2021,06,26,07,34,21.10
2021,06,26,07,35,21.20
2021,06,26,07,36,21.20
2021,06,26,07,37,21.20
2021,06,26,07,38,21.30
2021,06,26,07,39,21.30
2021,06,26,07,40,21.40
2021,06,26,07,41,21.40
2021,06,26,07,42,21.50
2021,06,26,07,43,21.60
2021,06,26,07,44,21.60
2021,06,26,07,45,21.70
2021,06,26,07,46,21.70
2021,06,26,07,47,21.80
2021,06,26,07,48,21.80
2021,06,26,07,49,21.90
2021,06,26,07,50,22.00
2021,06,26,07,51,22.00
2021,06,26,07,52,22.10
2021,06,26,07,53,22.20
2021,06,26,07,54,22.20
2021,06,26,07,55,22.30
2021,06,26,07,56,22.40
2021,06,26,07,57,22.50
2021,06,26,07,58,22.60
2021,06,26,07,59,22.80
2021,06,26,08,00,22.90
2021,06,26,08,01,23.10
2021,06,26,08,02,23.20
2021,06,26,08,03,23.30
2021,06,26,08,04,23.50
2021,06,26,08,05,23.70
2021,06,26,08,06,23.90
2021,06,26,08,07,24.10
2021,06,26,08,08,24.30
2021,06,26,08,09,24.50
2021,06,26,08,10,24.80
2021,06,26,08,11,24.90
2021,06,26,08,12,25.10
2021,06,26,08,13,25.20
2021,06,26,08,14,25.20
2021,06,26,08,15,25.30
2021,06,26,08,16,25.30
2021,06,26,08,17,25.30
2021,06,26,08,18,25.30
2021,06,26,08,19,25.30
2021,06,26,08,20,25.40
2021,06,26,08,21,25.40
2021,06,26,08,22,25.40
2021,06,26,08,23,25.40
2021,06,26,08,24,25.50
2021,06,26,08,25,25.50
2021,06,26,08,26,25.50
2021,06,26,08,27,25.60
2021,06,26,08,28,25.60
2021,06,26,08,29,25.60
2021,06,26,08,30,25.70
2021,06,26,08,31,25.70
2021,06,26,08,32,25.80
2021,06,26,08,33,25.90
2021,06,26,08,34,25.90
2021,06,26,08,35,26.00
2021,06,26,08,36,26.10
2021,06,26,08,37,26.10
2021,06,26,08,38,26.10
2021,06,26,08,39,26.20
2021,06,26,08,40,26.20
2021,06,26,08,41,26.20
2021,06,26,08,42,26.20
2021,06,26,08,43,26.20
2021,06,26,08,44,26.20
2021,06,26,08,45,26.20
2021,06,26,08,46,26.20
2021,06,26,08,47,26.20
2021,06,26,08,48,26.30
2021,06,26,08,49,26.30
2021,06,26,08,50,26.30
2021,06,26,08,51,26.40
2021,06,26,08,52,26.40
2021,06,26,08,53,26.50
2021,06,26,08,54,26.50
2021,06,26,08,55,26.50
2021,06,26,08,56,26.60
2021,06,26,08,57,26.60
2021,06,26,08,58,26.60
2021,06,26,08,59,26.70
2021,06,26,09,00,26.80
2021,06,26,09,01,26.80
2021,06,26,09,02,26.90
2021,06,26,09,03,27.00
2021,06,26,09,04,27.10
2021,06,26,09,05,27.10
2021,06,26,09,06,27.20
2021,06,26,09,07,27.20
2021,06,26,09,08,27.30
2021,06,26,09,09,27.30
2021,06,26,09,10,27.30
2021,06,26,09,11,27.30
2021,06,26,09,12,27.40
2021,06,26,09,13,27.30
2021,06,26,09,14,27.30
2021,06,26,09,15,27.30
2021,06,26,09,16,27.30
2021,06,26,09,17,27.30
2021,06,26,09,18,27.30
2021,06,26,09,19,27.40
2021,06,26,09,20,27.40
2021,06,26,09,21,27.40
2021,06,26,09,22,27.50
2021,06,26,09,23,27.60
2021,06,26,09,24,27.60
2021,06,26,09,25,27.70
2021,06,26,09,26,27.80
2021,06,26,09,27,27.80
2021,06,26,09,28,28.00
2021,06,26,09,29,28.00
2021,06,26,09,30,28.10
2021,06,26,09,31,28.20
2021,06,26,09,32,28.20
2021,06,26,09,33,28.30
2021,06,26,09,34,28.30
2021,06,26,09,35,28.40
2021,06,26,09,36,28.50
2021,06,26,09,37,28.60
2021,06,26,09,38,28.70
2021,06,26,09,39,28.80
2021,06,26,09,40,28.90
2021,06,26,09,41,28.90
2021,06,26,09,42,29.00
2021,06,26,09,43,29.10
2021,06,26,09,44,29.20
2021,06,26,09,45,29.20
2021,06,26,09,46,29.30
2021,06,26,09,47,29.40
2021,06,26,09,48,29.40
2021,06,26,09,49,29.40
2021,06,26,09,50,29.40
2021,06,26,09,51,29.40
2021,06,26,09,52,29.40
2021,06,26,09,53,29.40
2021,06,26,09,54,29.50
2021,06,26,09,55,29.60
2021,06,26,09,56,29.70
2021,06,26,09,57,29.70
2021,06,26,09,58,29.70
2021,06,26,09,59,29.80
2021,06,26,10,00,29.80
2021,06,26,10,01,29.90
2021,06,26,10,02,30.00
2021,06,26,10,03,30.00
2021,06,26,10,04,30.10
2021,06,26,10,05,30.00
2021,06,26,10,06,29.90
2021,06,26,10,07,29.80
2021,06,26,10,08,29.70
2021,06,26,10,09,29.70
2021,06,26,10,10,29.70
2021,06,26,10,11,29.70
2021,06,26,10,12,29.70
2021,06,26,10,13,29.60
2021,06,26,10,14,29.70
2021,06,26,10,15,29.70
2021,06,26,10,16,29.80
2021,06,26,10,17,29.80
2021,06,26,10,18,29.60
2021,06,26,10,19,29.40
2021,06,26,10,20,29.20
2021,06,26,10,21,29.10
2021,06,26,10,22,29.00
2021,06,26,10,23,28.90
2021,06,26,10,24,28.90
2021,06,26,10,25,29.00
2021,06,26,10,26,29.00
2021,06,26,10,27,29.10
2021,06,26,10,28,29.20
2021,06,26,10,29,29.30
2021,06,26,10,30,29.30
2021,06,26,10,31,29.30
2021,06,26,10,32,29.20
2021,06,26,10,33,29.20
2021,06,26,10,34,29.20
2021,06,26,10,35,29.20
2021,06,26,10,36,29.20
2021,06,26,10,37,29.20
2021,06,26,10,38,29.20
2021,06,26,10,39,29.30
2021,06,26,10,40,29.30
2021,06,26,10,41,29.30
2021,06,26,10,42,29.40
2021,06,26,10,43,29.40
2021,06,26,10,44,29.50
2021,06,26,10,45,29.50
2021,06,26,10,46,29.60
2021,06,26,10,47,29.60
2021,06,26,10,48,29.60
2021,06,26,10,49,29.60
2021,06,26,10,50,29.60
2021,06,26,10,51,29.60
2021,06,26,10,52,29.60
2021,06,26,10,53,29.70
2021,06,26,10,54,29.80
2021,06,26,10,55,29.70
2021,06,26,10,56,29.70
2021,06,26,10,57,29.60
2021,06,26,10,58,29.60
2021,06,26,10,59,29.60
2021,06,26,11,00,29.60
2021,06,26,11,01,29.50
2021,06,26,11,02,29.50
2021,06,26,11,03,29.50
2021,06,26,11,04,29.50
2021,06,26,11,05,29.50
2021,06,26,11,06,29.60
2021,06,26,11,07,29.60
2021,06,26,11,08,29.70
2021,06,26,11,09,29.70
2021,06,26,11,10,29.80
2021,06,26,11,11,29.90
2021,06,26,11,12,30.00
2021,06,26,11,13,30.10
2021,06,26,11,14,30.10
2021,06,26,11,15,30.10
2021,06,26,11,16,30.10
2021,06,26,11,17,30.20
2021,06,26,11,18,30.30
2021,06,26,11,19,30.40
2021,06,26,11,20,30.30
2021,06,26,11,21,30.30
2021,06,26,11,22,30.40
2021,06,26,11,23,30.40
2021,06,26,11,24,30.40
2021,06,26,11,25,30.50
2021,06,26,11,26,30.50
2021,06,26,11,27,30.50
2021,06,26,11,28,30.60
2021,06,26,11,29,30.60
2021,06,26,11,30,30.70
2021,06,26,11,31,30.80
2021,06,26,11,32,30.70
2021,06,26,11,33,30.60
2021,06,26,11,34,30.50
2021,06,26,11,35,30.50
2021,06,26,11,36,30.50
2021,06,26,11,37,30.50
2021,06,26,11,38,30.50
2021,06,26,11,39,30.60
2021,06,26,11,40,30.70
2021,06,26,11,41,30.80
2021,06,26,11,42,30.80
2021,06,26,11,43,30.80
2021,06,26,11,44,30.90
2021,06,26,11,45,30.90
2021,06,26,11,46,30.90
2021,06,26,11,47,30.90
2021,06,26,11,48,30.90
2021,06,26,11,49,30.90
2021,06,26,11,50,30.90
2021,06,26,11,51,30.90
2021,06,26,11,52,30.90
2021,06,26,11,53,30.90
2021,06,26,11,54,30.90
2021,06,26,11,55,30.90
2021,06,26,11,56,30.80
2021,06,26,11,57,30.90
2021,06,26,11,58,30.90
2021,06,26,11,59,31.00
2021,06,26,12,00,30.90
2021,06,26,12,01,30.80
2021,06,26,12,02,30.80
2021,06,26,12,03,30.90
2021,06,26,12,04,31.00
2021,06,26,12,05,31.10
2021,06,26,12,06,31.10
2021,06,26,12,07,31.10
2021,06,26,12,08,31.20
2021,06,26,12,09,31.30
2021,06,26,12,10,31.30
2021,06,26,12,11,31.30
2021,06,26,12,12,31.20
2021,06,26,12,13,31.20
2021,06,26,12,14,31.20
2021,06,26,12,15,31.20
2021,06,26,12,16,31.10
2021,06,26,12,17,31.10
2021,06,26,12,18,31.20
2021,06,26,12,19,31.30
2021,06,26,12,20,31.30
2021,06,26,12,21,31.40
2021,06,26,12,22,31.60
2021,06,26,12,23,31.50
2021,06,26,12,24,31.60
2021,06,26,12,25,31.60
2021,06,26,12,26,31.70
2021,06,26,12,27,31.70
2021,06,26,12,28,31.70
2021,06,26,12,29,31.70
2021,06,26,12,30,31.70
2021,06,26,12,31,31.70
2021,06,26,12,32,31.80
2021,06,26,12,33,31.80
2021,06,26,12,34,31.90
2021,06,26,12,35,31.90
2021,06,26,12,36,32.00
2021,06,26,12,37,32.00
2021,06,26,12,38,32.10
2021,06,26,12,39,32.10
2021,06,26,12,40,32.10
2021,06,26,12,41,32.10
2021,06,26,12,42,32.10
2021,06,26,12,43,32.10
2021,06,26,12,44,32.20
2021,06,26,12,45,32.20
2021,06,26,12,46,32.20
2021,06,26,12,47,32.20
2021,06,26,12,48,32.30
2021,06,26,12,49,32.30
2021,06,26,12,50,32.40
2021,06,26,12,51,32.50
2021,06,26,12,52,32.40
2021,06,26,12,53,32.30
2021,06,26,12,54,32.40
2021,06,26,12,55,32.40
2021,06,26,12,56,32.40
2021,06,26,12,57,32.60
2021,06,26,12,58,32.80
2021,06,26,12,59,32.90
2021,06,26,13,00,33.00
2021,06,26,13,01,32.90
2021,06,26,13,02,33.00
2021,06,26,13,03,33.00
2021,06,26,13,04,33.00
2021,06,26,13,05,32.90
2021,06,26,13,06,32.90
2021,06,26,13,07,32.90
2021,06,26,13,08,32.80
2021,06,26,13,09,32.70
2021,06,26,13,10,32.70
2021,06,26,13,11,32.60
2021,06,26,13,12,32.60
2021,06,26,13,13,32.60
2021,06,26,13,14,32.70
2021,06,26,13,15,32.70
2021,06,26,13,16,32.90
2021,06,26,13,17,32.90
2021,06,26,13,18,33.00
2021,06,26,13,19,33.00
2021,06,26,13,20,33.10
2021,06,26,13,21,33.10
2021,06,26,13,22,33.10
2021,06,26,13,23,33.10
2021,06,26,13,24,33.10
2021,06,26,13,25,33.10
2021,06,26,13,26,33.00
2021,06,26,13,27,33.00
2021,06,26,13,28,32.90
2021,06,26,13,29,32.80
2021,06,26,13,30,32.80
2021,06,26,13,31,32.90
2021,06,26,13,32,33.00
2021,06,26,13,33,33.10
2021,06,26,13,34,33.10
2021,06,26,13,35,33.20
2021,06,26,13,36,33.20
2021,06,26,13,37,33.20
2021,06,26,13,38,33.20
2021,06,26,13,39,33.20
2021,06,26,13,40,33.20
2021,06,26,13,41,33.10
2021,06,26,13,42,33.10
2021,06,26,13,43,33.10
2021,06,26,13,44,33.10
2021,06,26,13,45,33.00
2021,06,26,13,46,33.10
2021,06,26,13,47,33.10
2021,06,26,13,48,33.30
2021,06,26,13,49,33.40
2021,06,26,13,50,33.40
2021,06,26,13,51,33.50
2021,06,26,13,52,33.60
2021,06,26,13,53,33.60
2021,06,26,13,54,33.60
2021,06,26,13,55,33.70
2021,06,26,13,56,33.80
2021,06,26,13,57,33.80
2021,06,26,13,58,34.00
2021,06,26,13,59,34.10
2021,06,26,14,00,34.30
2021,06,26,14,01,34.30
2021,06,26,14,02,34.20
2021,06,26,14,03,34.20
2021,06,26,14,04,34.10
2021,06,26,14,05,34.00
2021,06,26,14,06,34.00
2021,06,26,14,07,34.00
2021,06,26,14,08,34.10
2021,06,26,14,09,34.20
2021,06,26,14,10,34.20
2021,06,26,14,11,34.10
2021,06,26,14,12,34.00
2021,06,26,14,13,33.90
2021,06,26,14,14,33.90
2021,06,26,14,15,34.00
2021,06,26,14,16,34.00
2021,06,26,14,17,34.00
2021,06,26,14,18,34.00
2021,06,26,14,19,34.00
2021,06,26,14,20,34.10
2021,06,26,14,21,34.10
2021,06,26,14,22,34.20
2021,06,26,14,23,34.20
2021,06,26,14,24,34.20
2021,06,26,14,25,34.30
2021,06,26,14,26,34.30
2021,06,26,14,27,34.40
2021,06,26,14,28,34.60
2021,06,26,14,29,34.70
2021,06,26,14,30,34.70
2021,06,26,14,31,34.70
2021,06,26,14,32,34.60
2021,06,26,14,33,34.50
2021,06,26,14,34,34.50
2021,06,26,14,35,34.50
2021,06,26,14,36,34.60
2021,06,26,14,37,34.50
2021,06,26,14,38,34.40
2021,06,26,14,39,34.40
2021,06,26,14,40,34.40
2021,06,26,14,41,34.40
2021,06,26,14,42,34.50
2021,06,26,14,43,34.60
2021,06,26,14,44,34.70
2021,06,26,14,45,34.80
2021,06,26,14,46,34.90
2021,06,26,14,47,35.10
2021,06,26,14,48,35.10
2021,06,26,14,49,35.10
2021,06,26,14,50,35.10
2021,06,26,14,51,35.10
2021,06,26,14,52,35.10
2021,06,26,14,53,35.00
2021,06,26,14,54,35.00
2021,06,26,14,55,34.90
2021,06,26,14,56,34.90
2021,06,26,14,57,34.90
2021,06,26,14,58,34.90
2021,06,26,14,59,34.90
2021,06,26,15,00,35.00
2021,06,26,15,01,35.10
2021,06,26,15,02,35.00
2021,06,26,15,03,35.10
2021,06,26,15,04,35.10
2021,06,26,15,05,35.10
2021,06,26,15,06,35.20
2021,06,26,15,07,35.30
2021,06,26,15,08,35.40
2021,06,26,15,09,35.50
2021,06,26,15,10,35.60
2021,06,26,15,11,35.70
2021,06,26,15,12,35.70
2021,06,26,15,13,35.80
2021,06,26,15,14,35.80
2021,06,26,15,15,35.80
2021,06,26,15,16,35.80
2021,06,26,15,17,35.80
2021,06,26,15,18,35.80
2021,06,26,15,19,35.70
2021,06,26,15,20,35.70
2021,06,26,15,21,35.70
2021,06,26,15,22,35.70
2021,06,26,15,23,35.70
2021,06,26,15,24,35.70
2021,06,26,15,25,35.70
2021,06,26,15,26,35.70
2021,06,26,15,27,35.70
2021,06,26,15,28,35.70
2021,06,26,15,29,35.70
2021,06,26,15,30,35.70
2021,06,26,15,31,35.70
2021,06,26,15,32,35.70
2021,06,26,15,33,35.70
2021,06,26,15,34,35.70
2021,06,26,15,35,35.70
2021,06,26,15,36,35.80
2021,06,26,15,37,35.80
2021,06,26,15,38,35.80
2021,06,26,15,39,35.80
2021,06,26,15,40,35.80
2021,06,26,15,41,35.90
2021,06,26,15,42,35.80
2021,06,26,15,43,35.70
2021,06,26,15,44,35.60
2021,06,26,15,45,35.50
2021,06,26,15,46,35.50
2021,06,26,15,47,35.50
2021,06,26,15,48,35.60
2021,06,26,15,49,35.60
2021,06,26,15,50,35.60
2021,06,26,15,51,35.70
2021,06,26,15,52,35.70
2021,06,26,15,53,35.70
2021,06,26,15,54,35.70
2021,06,26,15,55,35.70
2021,06,26,15,56,35.60
2021,06,26,15,57,35.60
2021,06,26,15,58,35.50
2021,06,26,15,59,35.50
2021,06,26,16,00,35.50
2021,06,26,16,01,35.60
2021,06,26,16,02,35.60
2021,06,26,16,03,35.60
2021,06,26,16,04,35.70
2021,06,26,16,05,35.60
2021,06,26,16,06,35.60
2021,06,26,16,07,35.60
2021,06,26,16,08,35.70
2021,06,26,16,09,35.70
2021,06,26,16,10,35.80
2021,06,26,16,11,35.80
2021,06,26,16,12,35.80
2021,06,26,16,13,35.80
2021,06,26,16,14,35.80
2021,06,26,16,15,35.90
2021,06,26,16,16,35.90
2021,06,26,16,17,36.00
2021,06,26,16,18,36.00
2021,06,26,16,19,36.10
2021,06,26,16,20,36.10
2021,06,26,16,21,36.10
2021,06,26,16,22,36.00
2021,06,26,16,23,36.00
2021,06,26,16,24,36.00
2021,06,26,16,25,35.90
2021,06,26,16,26,35.90
2021,06,26,16,27,35.90
2021,06,26,16,28,35.80
2021,06,26,16,29,35.90
2021,06,26,16,30,35.80
2021,06,26,16,31,35.70
2021,06,26,16,32,35.60
2021,06,26,16,33,35.50
2021,06,26,16,34,35.50
2021,06,26,16,35,35.50
2021,06,26,16,36,35.60
2021,06,26,16,37,35.60
2021,06,26,16,38,35.70
2021,06,26,16,39,35.80
2021,06,26,16,40,36.00
2021,06,26,16,41,36.00
2021,06,26,16,42,36.00
2021,06,26,16,43,36.00
2021,06,26,16,44,36.10
2021,06,26,16,45,36.10
2021,06,26,16,46,36.10
2021,06,26,16,47,36.10
2021,06,26,16,48,36.10
2021,06,26,16,49,36.00
2021,06,26,16,50,35.90
2021,06,26,16,51,35.90
2021,06,26,16,52,35.90
2021,06,26,16,53,36.00
2021,06,26,16,54,36.10
2021,06,26,16,55,36.10
2021,06,26,16,56,36.20
2021,06,26,16,57,36.20
2021,06,26,16,58,36.20
2021,06,26,16,59,36.20
2021,06,26,17,00,36.20
2021,06,26,17,01,36.20
2021,06,26,17,02,36.20
2021,06,26,17,03,36.10
2021,06,26,17,04,36.10
2021,06,26,17,05,36.00
2021,06,26,17,06,35.90
2021,06,26,17,07,35.80
2021,06,26,17,08,35.70
2021,06,26,17,09,35.70
2021,06,26,17,10,35.60
2021,06,26,17,11,35.60
2021,06,26,17,12,35.50
2021,06,26,17,13,35.50
2021,06,26,17,14,35.40
2021,06,26,17,15,35.30
2021,06,26,17,16,35.30
2021,06,26,17,17,35.30
2021,06,26,17,18,35.30
2021,06,26,17,19,35.30